Regional Weather Roundup
Issued by NWS

Home | Current Version | Previous Version | Graphics & Text | Print | Product List | Glossary On
Versions: 1 2 3 4 5 6 7 8 9 10 11 12 13 14 15 16 17 18 19 20 21 22 23 24 25 26 27 28 29 30 31 32 33 34 35 36 37 38 39 40 41 42 43 44 45 46 47 48 49 50
000
ASUS45 KABQ 260510
RWRNM
NEW MEXICO REGIONAL WEATHER ROUNDUP
NATIONAL WEATHER SERVICE ALBUQUERQUE NM
1100 PM MDT TUE APR 25 2017

NOTE: "FAIR" MEANS FEW OR NO CLOUDS BELOW 12,000 FEET AGL WITH NO
       SIGNIFICANT WEATHER OR OBSTRUCTIONS TO VISION.

      THIS PRODUCT IS RELEASED AS TWO VERSIONS.  ONE VERSION NEAR
      THE TOP OF THE HOUR CONTAINING PRELIMINARY DATA FROM ALBUQUERQUE
      AND OTHER STATIONS.  A FINAL VERSION WITH ADDITIONAL DATA IS
      ISSUED ABOUT 10 MINUTES AFTER THE HOUR.

NMZ501-503-504-510>518-260600-
NORTHWEST PLATEAU/NORTHCENTRAL MOUNTAINS

CITY           SKY/WX    TMP DP  RH WIND       PRES   REMARKS
FARMINGTON     FAIR      41  28  60 W14       29.81R
LOS ALAMOS     FAIR      42  20  42 N8G25     29.78S
SANTA FE       FAIR      39  32  76 N7        29.76R WCI  34
TAOS             N/A     34  27  75 S5        29.77F WCI  30
ANGEL FIRE     FLURRIES  32  29  91 W5        29.77S WCI  27

$$
NMZ402-403-502-505>509-260600-
WESTCENTRAL MOUNTAINS/SOUTHWEST MOUNTAINS

CITY           SKY/WX    TMP DP  RH WIND       PRES   REMARKS
GALLUP         FAIR      41  23  48 N8        29.90R
GRANTS         FAIR      42  23  46 NW15G24   29.88R
SILVER CITY    FAIR      56  31  37 W22G29    29.82R

$$
NMZ407-409-411-412-260600-
SOUTHERN DESERTS

CITY           SKY/WX    TMP DP  RH WIND       PRES   REMARKS
DEMING         FAIR      64  32  30 NW24G32   29.78R
LAS CRUCES     FAIR      65  31  27 W22G29    29.76R
HOLLOMAN AFB   FAIR      64  34  33 N20G31    29.76R
ALAMOGORDO     FAIR      63  37  39 N24G35    29.73R
T OR C         FAIR      53  34  48 N20G31    29.78R

$$
NMZ519>523-260600-
CENTRAL VALLEYS/CENTRAL HIGHLANDS

CITY           SKY/WX    TMP DP  RH WIND       PRES   REMARKS
ALBUQUERQUE    FAIR      47  36  65 S7        29.80R
MORIARTY ARPT  MOCLDY    43  35  72 W6        29.80S
CLINES CORNERS MOCLDY    38  31  76 W18       29.78R WCI  28
BELEN          MOCLDY    49  29  46 NW12      29.81S
SOCORRO        CLOUDY    48  41  75 NE8       29.82F

$$
NMZ524>526-539-540-260600-
SOUTHCENTRAL MOUNTAINS

CITY           SKY/WX    TMP DP  RH WIND       PRES   REMARKS
RUIDOSO        LGT RAIN  39  36  87 N14G20    29.84S WCI  31

$$
NMZ527>531-260600-
NORTHEAST HIGHLANDS/NORTHEAST PLAINS

CITY           SKY/WX    TMP DP  RH WIND       PRES   REMARKS
LAS VEGAS      FAIR      36  22  56 N9        29.71R WCI  29
RATON          LGT RAIN  38  31  76 N20       29.70R WCI  28
CLAYTON        CLOUDY    40  39  97 N22       29.65F WCI  30

$$
NMZ532>537-260600-
EASTCENTRAL PLAINS

CITY           SKY/WX    TMP DP  RH WIND       PRES   REMARKS
SANTA ROSA     FAIR      50  32  50 W13       29.65F
TUCUMCARI      FAIR      53  43  68 NE14      29.62R
CANNON AFB     CLOUDY    56  39  53 W12       29.64S
CLOVIS AIRPORT CLOUDY    54  41  62 W7        29.62F

$$
NMZ028-029-538-260600-
SOUTHEAST PLAINS

CITY           SKY/WX    TMP DP  RH WIND       PRES   REMARKS
ROSWELL        CLOUDY    59  39  47 N21G36      N/A
ARTESIA        FAIR      59  43  55 N21G35    29.68R
CARLSBAD       FAIR      75  32  20 NW21      29.63R
HOBBS          FAIR      66  37  34 NW30G37   29.63R


$$




USA.gov is the U.S. government's official web portal to all federal, state and local government web resources and services.